Location: Diebersbach
(48.5163°N, 8.0558°E)
Time: 21:08:55
(UTC+00:00)

Cosmos 1242 Rocket - Pass Details

Date: 26 October 2021
Orbit: 444 x 481 km, 81.2° (Epoch: 27 November)

Event Time Altitude Azimuth Distance (km) Brightness Sun altitude
Rises 04:48:43 0° 7° (N) 2,561 6.3 -13.1°
Reaches altitude 10° 04:52:20 10° 44° (NE) 1,671 5.9 -12.5°
Maximum altitude 04:53:25 11° 62° (ENE) 1,603 6.1 -12.4°
Drops below altitude 10° 04:54:30 10° 79° (E) 1,664 6.6 -12.2°
Sets 04:58:04 0° 117° (ESE) 2,530 7.7 -11.6°
